contact:dominique.lefevre@mio.osupytheas.fr, maurice.libes@osupytheas.fr, didier.mallarino@osupytheas.fr
Project:EMSO http://www.emso-fr.org/EMSO-France
Depth: 2436.0 m
Title:EMSO Ligure Ouest : Data MII capteur MICROCAT
DateTime_Computer,Latitude,Longitude,Temperature,Conductivity,Pressure,DateTime_Instrument
DateTime_Computer,Latitude,Longitude,degC,S m-1,dbar,DateTime_Instrument
2022-11-29T00:00:37Z,42.805,6.029,13.3015,4.60072,2470.646,2022-11-29T02:02:37Z
2022-11-29T00:03:41Z,42.805,6.029,13.3023,4.60070,2470.661,2022-11-29T02:05:40Z
2022-11-29T00:06:44Z,42.805,6.029,13.3021,4.60072,2470.661,2022-11-29T02:08:43Z
2022-11-29T00:09:47Z,42.805,6.029,13.3017,4.60068,2470.637,2022-11-29T02:11:46Z
2022-11-29T00:12:50Z,42.805,6.029,13.3018,4.60072,2470.637,2022-11-29T02:14:49Z
2022-11-29T00:15:53Z,42.805,6.029,13.3019,4.60068,2470.6,2022-11-29T02:17:52Z
2022-11-29T00:18:56Z,42.805,6.029,13.3021,4.60067,2470.624,2022-11-29T02:20:55Z
2022-11-29T00:21:59Z,42.805,6.029,13.3023,4.60070,2470.624,2022-11-29T02:23:58Z
2022-11-29T00:25:02Z,42.805,6.029,13.3021,4.60072,2470.624,2022-11-29T02:27:01Z
2022-11-29T00:28:05Z,42.805,6.029,13.3022,4.60071,2470.637,2022-11-29T02:30:04Z
2022-11-29T00:31:08Z,42.805,6.029,13.3024,4.60073,2470.614,2022-11-29T02:33:08Z
2022-11-29T00:34:11Z,42.805,6.029,13.3022,4.60070,2470.624,2022-11-29T02:36:11Z
2022-11-29T00:37:14Z,42.805,6.029,13.3021,4.60078,2470.637,2022-11-29T02:39:14Z
2022-11-29T00:40:17Z,42.805,6.029,13.3015,4.60078,2470.6,2022-11-29T02:42:17Z
2022-11-29T00:43:21Z,42.805,6.029,13.3021,4.60070,2470.624,2022-11-29T02:45:20Z
2022-11-29T00:46:24Z,42.805,6.029,13.3015,4.60068,2470.637,2022-11-29T02:48:23Z
2022-11-29T00:49:27Z,42.805,6.029,13.3021,4.60070,2470.624,2022-11-29T02:51:26Z
2022-11-29T00:52:30Z,42.805,6.029,13.3016,4.60073,2470.637,2022-11-29T02:54:29Z
2022-11-29T00:55:33Z,42.805,6.029,13.3021,4.60069,2470.624,2022-11-29T02:57:32Z
2022-11-29T00:58:36Z,42.805,6.029,13.3019,4.60077,2470.624,2022-11-29T03:00:35Z
2022-11-29T01:01:39Z,42.805,6.029,13.3021,4.60072,2470.637,2022-11-29T03:03:38Z
2022-11-29T01:04:42Z,42.805,6.029,13.3015,4.60069,2470.624,2022-11-29T03:06:41Z
2022-11-29T01:07:45Z,42.805,6.029,13.3018,4.60072,2470.637,2022-11-29T03:09:45Z
2022-11-29T01:10:48Z,42.805,6.029,13.3022,4.60069,2470.624,2022-11-29T03:12:48Z
2022-11-29T01:13:51Z,42.805,6.029,13.3019,4.60068,2470.624,2022-11-29T03:15:51Z
2022-11-29T01:16:54Z,42.805,6.029,13.3021,4.60070,2470.661,2022-11-29T03:18:54Z
2022-11-29T01:19:57Z,42.805,6.029,13.3021,4.60069,2470.637,2022-11-29T03:21:57Z
2022-11-29T01:23:00Z,42.805,6.029,13.3021,4.60079,2470.6,2022-11-29T03:25:00Z
2022-11-29T01:26:04Z,42.805,6.029,13.3024,4.60070,2470.614,2022-11-29T03:28:03Z
2022-11-29T01:29:07Z,42.805,6.029,13.3024,4.60069,2470.624,2022-11-29T03:31:06Z
2022-11-29T01:32:10Z,42.805,6.029,13.3019,4.60070,2470.6,2022-11-29T03:34:09Z
2022-11-29T01:35:13Z,42.805,6.029,13.3024,4.60069,2470.637,2022-11-29T03:37:12Z
2022-11-29T01:38:16Z,42.805,6.029,13.3023,4.60074,2470.614,2022-11-29T03:40:15Z
2022-11-29T01:41:19Z,42.805,6.029,13.3017,4.60068,2470.624,2022-11-29T03:43:18Z
2022-11-29T01:44:22Z,42.805,6.029,13.3023,4.60076,2470.6,2022-11-29T03:46:21Z
2022-11-29T01:47:25Z,42.805,6.029,13.3023,4.60067,2470.614,2022-11-29T03:49:24Z
2022-11-29T01:50:28Z,42.805,6.029,13.3016,4.60067,2470.591,2022-11-29T03:52:27Z
2022-11-29T01:53:31Z,42.805,6.029,13.3020,4.60068,2470.6,2022-11-29T03:55:31Z
2022-11-29T01:56:34Z,42.805,6.029,13.3020,4.60068,2470.6,2022-11-29T03:58:34Z
2022-11-29T01:59:37Z,42.805,6.029,13.3016,4.60076,2470.614,2022-11-29T04:01:37Z
2022-11-29T02:02:40Z,42.805,6.029,13.3020,4.60068,2470.591,2022-11-29T04:04:40Z
2022-11-29T02:05:43Z,42.805,6.029,13.3019,4.60069,2470.614,2022-11-29T04:07:43Z
2022-11-29T02:08:47Z,42.805,6.029,13.3020,4.60072,2470.6,2022-11-29T04:10:46Z
2022-11-29T02:11:50Z,42.805,6.029,13.3021,4.60067,2470.6,2022-11-29T04:13:49Z
2022-11-29T02:14:53Z,42.805,6.029,13.3017,4.60067,2470.577,2022-11-29T04:16:52Z
2022-11-29T02:17:56Z,42.805,6.029,13.3023,4.60070,2470.624,2022-11-29T04:19:55Z
2022-11-29T02:20:59Z,42.805,6.029,13.3022,4.60074,2470.591,2022-11-29T04:22:58Z
2022-11-29T02:24:02Z,42.805,6.029,13.3025,4.60069,2470.591,2022-11-29T04:26:01Z
2022-11-29T02:27:05Z,42.805,6.029,13.3024,4.60069,2470.614,2022-11-29T04:29:04Z
2022-11-29T02:30:08Z,42.805,6.029,13.3021,4.60078,2470.591,2022-11-29T04:32:07Z
2022-11-29T02:33:11Z,42.805,6.029,13.3021,4.60074,2470.577,2022-11-29T04:35:11Z
2022-11-29T02:36:14Z,42.805,6.029,13.3018,4.60072,2470.6,2022-11-29T04:38:14Z
2022-11-29T02:39:17Z,42.805,6.029,13.3020,4.60068,2470.591,2022-11-29T04:41:17Z
2022-11-29T02:42:20Z,42.805,6.029,13.3018,4.60070,2470.6,2022-11-29T04:44:20Z
2022-11-29T02:45:23Z,42.805,6.029,13.3023,4.60070,2470.6,2022-11-29T04:47:23Z
2022-11-29T02:48:27Z,42.805,6.029,13.3024,4.60074,2470.6,2022-11-29T04:50:26Z
2022-11-29T02:51:30Z,42.805,6.029,13.3026,4.60067,2470.6,2022-11-29T04:53:29Z
2022-11-29T02:54:33Z,42.805,6.029,13.3023,4.60068,2470.577,2022-11-29T04:56:32Z
2022-11-29T02:57:36Z,42.805,6.029,13.3021,4.60072,2470.614,2022-11-29T04:59:35Z
2022-11-29T03:00:39Z,42.805,6.029,13.3019,4.60069,2470.577,2022-11-29T05:02:38Z
2022-11-29T03:03:42Z,42.805,6.029,13.3023,4.60068,2470.614,2022-11-29T05:05:41Z
2022-11-29T03:06:45Z,42.805,6.029,13.3022,4.60070,2470.577,2022-11-29T05:08:44Z
2022-11-29T03:09:48Z,42.805,6.029,13.3021,4.60075,2470.577,2022-11-29T05:11:48Z
2022-11-29T03:12:51Z,42.805,6.029,13.3019,4.60069,2470.591,2022-11-29T05:14:51Z
2022-11-29T03:15:54Z,42.805,6.029,13.3017,4.60069,2470.553,2022-11-29T05:17:54Z
2022-11-29T03:18:57Z,42.805,6.029,13.3020,4.60072,2470.591,2022-11-29T05:20:57Z
2022-11-29T03:22:00Z,42.805,6.029,13.3019,4.60068,2470.577,2022-11-29T05:24:00Z
2022-11-29T03:25:04Z,42.805,6.029,13.3015,4.60067,2470.591,2022-11-29T05:27:03Z
2022-11-29T03:28:07Z,42.805,6.029,13.3022,4.60067,2470.577,2022-11-29T05:30:06Z
2022-11-29T03:31:10Z,42.805,6.029,13.3019,4.60075,2470.6,2022-11-29T05:33:09Z
2022-11-29T03:34:13Z,42.805,6.029,13.3021,4.60069,2470.553,2022-11-29T05:36:12Z
2022-11-29T03:37:16Z,42.805,6.029,13.3021,4.60067,2470.591,2022-11-29T05:39:15Z
2022-11-29T03:40:19Z,42.805,6.029,13.3021,4.60068,2470.577,2022-11-29T05:42:18Z
2022-11-29T03:43:22Z,42.805,6.029,13.3019,4.60069,2470.591,2022-11-29T05:45:21Z
2022-11-29T03:46:25Z,42.805,6.029,13.3021,4.60070,2470.6,2022-11-29T05:48:24Z
2022-11-29T03:49:28Z,42.805,6.029,13.3021,4.60076,2470.591,2022-11-29T05:51:28Z
2022-11-29T03:52:31Z,42.805,6.029,13.3020,4.60067,2470.591,2022-11-29T05:54:31Z
2022-11-29T03:55:34Z,42.805,6.029,13.3021,4.60067,2470.567,2022-11-29T05:57:34Z
2022-11-29T03:58:37Z,42.805,6.029,13.3019,4.60067,2470.577,2022-11-29T06:00:37Z
2022-11-29T04:01:40Z,42.805,6.029,13.3020,4.60069,2470.577,2022-11-29T06:03:40Z
2022-11-29T04:04:43Z,42.805,6.029,13.3018,4.60069,2470.567,2022-11-29T06:06:43Z
2022-11-29T04:07:47Z,42.805,6.029,13.3022,4.60078,2470.53,2022-11-29T06:09:46Z
2022-11-29T04:10:50Z,42.805,6.029,13.3019,4.60070,2470.567,2022-11-29T06:12:49Z
2022-11-29T04:13:53Z,42.805,6.029,13.3019,4.60066,2470.553,2022-11-29T06:15:52Z
2022-11-29T04:16:56Z,42.805,6.029,13.3017,4.60066,2470.553,2022-11-29T06:18:55Z
2022-11-29T04:19:59Z,42.805,6.029,13.3019,4.60067,2470.591,2022-11-29T06:21:58Z
2022-11-29T04:23:02Z,42.805,6.029,13.3019,4.60072,2470.591,2022-11-29T06:25:01Z
2022-11-29T04:26:05Z,42.805,6.029,13.3021,4.60067,2470.553,2022-11-29T06:28:04Z
2022-11-29T04:29:08Z,42.805,6.029,13.3015,4.60067,2470.553,2022-11-29T06:31:07Z
2022-11-29T04:32:11Z,42.805,6.029,13.3015,4.60069,2470.567,2022-11-29T06:34:11Z
2022-11-29T04:35:14Z,42.805,6.029,13.3018,4.60067,2470.544,2022-11-29T06:37:14Z
2022-11-29T04:38:17Z,42.805,6.029,13.3015,4.60067,2470.567,2022-11-29T06:40:17Z
2022-11-29T04:41:20Z,42.805,6.029,13.3019,4.60067,2470.553,2022-11-29T06:43:20Z
2022-11-29T04:44:23Z,42.805,6.029,13.3019,4.60069,2470.553,2022-11-29T06:46:23Z
2022-11-29T04:47:27Z,42.805,6.029,13.3024,4.60069,2470.53,2022-11-29T06:49:26Z
2022-11-29T04:50:30Z,42.805,6.029,13.3021,4.60076,2470.53,2022-11-29T06:52:29Z
2022-11-29T04:53:33Z,42.805,6.029,13.3017,4.60067,2470.553,2022-11-29T06:55:32Z
2022-11-29T04:56:36Z,42.805,6.029,13.3014,4.60067,2470.567,2022-11-29T06:58:35Z
2022-11-29T04:59:39Z,42.805,6.029,13.3017,4.60069,2470.544,2022-11-29T07:01:38Z
2022-11-29T05:02:42Z,42.805,6.029,13.3015,4.60067,2470.53,2022-11-29T07:04:41Z
2022-11-29T05:05:45Z,42.805,6.029,13.3018,4.60066,2470.53,2022-11-29T07:07:44Z
2022-11-29T05:08:48Z,42.805,6.029,13.3020,4.60066,2470.567,2022-11-29T07:10:47Z
2022-11-29T05:11:51Z,42.805,6.029,13.3017,4.60068,2470.567,2022-11-29T07:13:51Z
2022-11-29T05:14:54Z,42.805,6.029,13.3019,4.60068,2470.567,2022-11-29T07:16:54Z
2022-11-29T05:17:57Z,42.805,6.029,13.3024,4.60067,2470.567,2022-11-29T07:19:57Z
2022-11-29T05:21:00Z,42.805,6.029,13.3021,4.60069,2470.567,2022-11-29T07:23:00Z
2022-11-29T05:24:03Z,42.805,6.029,13.3021,4.60068,2470.567,2022-11-29T07:26:03Z
2022-11-29T05:27:07Z,42.805,6.029,13.3019,4.60068,2470.591,2022-11-29T07:29:06Z
2022-11-29T05:30:10Z,42.805,6.029,13.3020,4.60077,2470.53,2022-11-29T07:32:09Z
2022-11-29T05:33:13Z,42.805,6.029,13.3015,4.60069,2470.567,2022-11-29T07:35:12Z
2022-11-29T05:36:16Z,42.805,6.029,13.3021,4.60067,2470.544,2022-11-29T07:38:15Z
2022-11-29T05:39:19Z,42.805,6.029,13.3018,4.60074,2470.591,2022-11-29T07:41:18Z
2022-11-29T05:42:22Z,42.805,6.029,13.3019,4.60069,2470.591,2022-11-29T07:44:21Z
2022-11-29T05:45:25Z,42.805,6.029,13.3021,4.60067,2470.553,2022-11-29T07:47:24Z
2022-11-29T05:48:28Z,42.805,6.029,13.3023,4.60068,2470.553,2022-11-29T07:50:27Z
2022-11-29T05:51:31Z,42.805,6.029,13.3024,4.60067,2470.577,2022-11-29T07:53:31Z
2022-11-29T05:54:34Z,42.805,6.029,13.3018,4.60070,2470.553,2022-11-29T07:56:34Z
2022-11-29T05:57:37Z,42.805,6.029,13.3017,4.60069,2470.553,2022-11-29T07:59:37Z
2022-11-29T06:00:40Z,42.805,6.029,13.3020,4.60067,2470.577,2022-11-29T08:02:40Z
2022-11-29T06:03:43Z,42.805,6.029,13.3021,4.60068,2470.553,2022-11-29T08:05:43Z
2022-11-29T06:06:46Z,42.805,6.029,13.3018,4.60066,2470.553,2022-11-29T08:08:46Z
2022-11-29T06:09:50Z,42.805,6.029,13.3019,4.60067,2470.577,2022-11-29T08:11:49Z
2022-11-29T06:12:53Z,42.805,6.029,13.3023,4.60070,2470.53,2022-11-29T08:14:52Z
2022-11-29T06:15:56Z,42.805,6.029,13.3018,4.60069,2470.577,2022-11-29T08:17:55Z
2022-11-29T06:18:59Z,42.805,6.029,13.3021,4.60069,2470.577,2022-11-29T08:20:58Z
2022-11-29T06:22:02Z,42.805,6.029,13.3020,4.60068,2470.553,2022-11-29T08:24:01Z
2022-11-29T06:25:05Z,42.805,6.029,13.3016,4.60068,2470.591,2022-11-29T08:27:04Z
2022-11-29T06:28:08Z,42.805,6.029,13.3020,4.60070,2470.577,2022-11-29T08:30:07Z
2022-11-29T06:31:11Z,42.805,6.029,13.3019,4.60069,2470.567,2022-11-29T08:33:10Z
2022-11-29T06:34:14Z,42.805,6.029,13.3021,4.60071,2470.577,2022-11-29T08:36:14Z
2022-11-29T06:37:17Z,42.805,6.029,13.3021,4.60074,2470.577,2022-11-29T08:39:17Z
2022-11-29T06:40:20Z,42.805,6.029,13.3022,4.60077,2470.577,2022-11-29T08:42:20Z
2022-11-29T06:43:23Z,42.805,6.029,13.3017,4.60074,2470.567,2022-11-29T08:45:23Z
2022-11-29T06:46:27Z,42.805,6.029,13.3021,4.60077,2470.591,2022-11-29T08:48:26Z
2022-11-29T06:49:30Z,42.805,6.029,13.3016,4.60077,2470.577,2022-11-29T08:51:29Z
2022-11-29T06:52:33Z,42.805,6.029,13.3026,4.60074,2470.624,2022-11-29T08:54:32Z
2022-11-29T06:55:36Z,42.805,6.029,13.3033,4.60079,2470.577,2022-11-29T08:57:35Z
2022-11-29T06:58:39Z,42.805,6.029,13.3026,4.60081,2470.553,2022-11-29T09:00:38Z
2022-11-29T07:01:42Z,42.805,6.029,13.3022,4.60079,2470.6,2022-11-29T09:03:41Z
2022-11-29T07:04:45Z,42.805,6.029,13.3021,4.60076,2470.6,2022-11-29T09:06:44Z
2022-11-29T07:07:48Z,42.805,6.029,13.3019,4.60076,2470.614,2022-11-29T09:09:47Z
2022-11-29T07:10:51Z,42.805,6.029,13.3021,4.60076,2470.577,2022-11-29T09:12:51Z
2022-11-29T07:13:54Z,42.805,6.029,13.3028,4.60070,2470.6,2022-11-29T09:15:54Z
2022-11-29T07:16:57Z,42.805,6.029,13.3052,4.60111,2470.6,2022-11-29T09:18:57Z
2022-11-29T07:20:00Z,42.805,6.029,13.3035,4.60077,2470.6,2022-11-29T09:22:00Z
2022-11-29T07:23:03Z,42.805,6.029,13.3047,4.60081,2470.624,2022-11-29T09:25:03Z
2022-11-29T07:26:06Z,42.805,6.029,13.3021,4.60080,2470.614,2022-11-29T09:28:06Z
2022-11-29T07:29:10Z,42.805,6.029,13.3036,4.60102,2470.637,2022-11-29T09:31:09Z
2022-11-29T07:32:13Z,42.805,6.029,13.3032,4.60073,2470.637,2022-11-29T09:34:12Z
2022-11-29T07:35:16Z,42.805,6.029,13.3021,4.60075,2470.614,2022-11-29T09:37:15Z
2022-11-29T07:38:19Z,42.805,6.029,13.3020,4.60072,2470.6,2022-11-29T09:40:18Z
2022-11-29T07:41:22Z,42.805,6.029,13.3026,4.60078,2470.577,2022-11-29T09:43:21Z
2022-11-29T07:44:25Z,42.805,6.029,13.3035,4.60087,2470.646,2022-11-29T09:46:24Z
2022-11-29T07:47:28Z,42.805,6.029,13.3019,4.60074,2470.6,2022-11-29T09:49:27Z
2022-11-29T07:50:31Z,42.805,6.029,13.3041,4.60075,2470.624,2022-11-29T09:52:30Z
2022-11-29T07:53:34Z,42.805,6.029,13.3047,4.60101,2470.624,2022-11-29T09:55:34Z
2022-11-29T07:56:37Z,42.805,6.029,13.3054,4.60110,2470.646,2022-11-29T09:58:37Z
2022-11-29T07:59:40Z,42.805,6.029,13.3029,4.60102,2470.624,2022-11-29T10:01:40Z
2022-11-29T08:02:43Z,42.805,6.029,13.3043,4.60133,2470.624,2022-11-29T10:04:43Z
2022-11-29T08:05:46Z,42.805,6.029,13.3037,4.60155,2470.661,2022-11-29T10:07:46Z
2022-11-29T08:08:50Z,42.805,6.029,13.3040,4.60125,2470.637,2022-11-29T10:10:49Z
2022-11-29T08:11:53Z,42.805,6.029,13.3035,4.60135,2470.661,2022-11-29T10:13:52Z
2022-11-29T08:14:56Z,42.805,6.029,13.3037,4.60123,2470.646,2022-11-29T10:16:55Z
2022-11-29T08:17:59Z,42.805,6.029,13.3029,4.60140,2470.661,2022-11-29T10:19:58Z
2022-11-29T08:21:02Z,42.805,6.029,13.3034,4.60125,2470.67,2022-11-29T10:23:01Z
2022-11-29T08:24:05Z,42.805,6.029,13.3036,4.60122,2470.684,2022-11-29T10:26:04Z
2022-11-29T08:27:08Z,42.805,6.029,13.3036,4.60139,2470.684,2022-11-29T10:29:07Z
2022-11-29T08:30:11Z,42.805,6.029,13.3051,4.60139,2470.646,2022-11-29T10:32:11Z
2022-11-29T08:33:14Z,42.805,6.029,13.3058,4.60127,2470.684,2022-11-29T10:35:14Z
2022-11-29T08:36:17Z,42.805,6.029,13.3052,4.60138,2470.67,2022-11-29T10:38:17Z
2022-11-29T08:39:20Z,42.805,6.029,13.3038,4.60145,2470.707,2022-11-29T10:41:20Z
2022-11-29T08:42:23Z,42.805,6.029,13.3039,4.60146,2470.707,2022-11-29T10:44:23Z
2022-11-29T08:45:27Z,42.805,6.029,13.3039,4.60141,2470.684,2022-11-29T10:47:26Z
2022-11-29T08:48:30Z,42.805,6.029,13.3056,4.60164,2470.693,2022-11-29T10:50:29Z
2022-11-29T08:51:33Z,42.805,6.029,13.3063,4.60152,2470.707,2022-11-29T10:53:32Z
2022-11-29T08:54:36Z,42.805,6.029,13.3033,4.60135,2470.717,2022-11-29T10:56:35Z
2022-11-29T08:57:39Z,42.805,6.029,13.3043,4.60129,2470.707,2022-11-29T10:59:38Z
2022-11-29T09:00:42Z,42.805,6.029,13.3050,4.60146,2470.67,2022-11-29T11:02:41Z
2022-11-29T09:03:45Z,42.805,6.029,13.3053,4.60140,2470.707,2022-11-29T11:05:44Z
2022-11-29T09:06:48Z,42.805,6.029,13.3055,4.60142,2470.684,2022-11-29T11:08:48Z
2022-11-29T09:09:51Z,42.805,6.029,13.3043,4.60146,2470.73,2022-11-29T11:11:51Z
2022-11-29T09:12:54Z,42.805,6.029,13.3029,4.60137,2470.754,2022-11-29T11:14:54Z
2022-11-29T09:15:57Z,42.805,6.029,13.3056,4.60154,2470.754,2022-11-29T11:17:57Z
2022-11-29T09:19:00Z,42.805,6.029,13.3039,4.60122,2470.707,2022-11-29T11:21:00Z
2022-11-29T09:22:03Z,42.805,6.029,13.3039,4.60129,2470.73,2022-11-29T11:24:03Z
2022-11-29T09:25:07Z,42.805,6.029,13.3036,4.60137,2470.777,2022-11-29T11:27:06Z
2022-11-29T09:28:10Z,42.805,6.029,13.3040,4.60157,2470.707,2022-11-29T11:30:09Z
2022-11-29T09:31:13Z,42.805,6.029,13.3041,4.60146,2470.73,2022-11-29T11:33:12Z
2022-11-29T09:34:16Z,42.805,6.029,13.3036,4.60155,2470.754,2022-11-29T11:36:15Z
2022-11-29T09:37:19Z,42.805,6.029,13.3031,4.60125,2470.754,2022-11-29T11:39:18Z
2022-11-29T09:40:22Z,42.805,6.029,13.3033,4.60125,2470.707,2022-11-29T11:42:21Z
2022-11-29T09:43:25Z,42.805,6.029,13.3041,4.60135,2470.763,2022-11-29T11:45:24Z
2022-11-29T09:46:28Z,42.805,6.029,13.3033,4.60132,2470.74,2022-11-29T11:48:28Z
2022-11-29T09:49:31Z,42.805,6.029,13.3037,4.60141,2470.74,2022-11-29T11:51:31Z
2022-11-29T09:52:34Z,42.805,6.029,13.3038,4.60149,2470.74,2022-11-29T11:54:34Z
2022-11-29T09:55:37Z,42.805,6.029,13.3031,4.60121,2470.777,2022-11-29T11:57:37Z
2022-11-29T09:58:40Z,42.805,6.029,13.3039,4.60119,2470.754,2022-11-29T12:00:40Z
2022-11-29T10:01:44Z,42.805,6.029,13.3031,4.60139,2470.717,2022-11-29T12:03:43Z
2022-11-29T10:04:47Z,42.805,6.029,13.3028,4.60140,2470.754,2022-11-29T12:06:46Z
2022-11-29T10:07:50Z,42.805,6.029,13.3037,4.60135,2470.717,2022-11-29T12:09:49Z
2022-11-29T10:10:53Z,42.805,6.029,13.3033,4.60110,2470.754,2022-11-29T12:12:52Z
2022-11-29T10:13:56Z,42.805,6.029,13.3030,4.60127,2470.74,2022-11-29T12:15:55Z
2022-11-29T10:16:59Z,42.805,6.029,13.3039,4.60128,2470.754,2022-11-29T12:18:58Z
2022-11-29T10:20:02Z,42.805,6.029,13.3048,4.60123,2470.777,2022-11-29T12:22:01Z
2022-11-29T10:23:05Z,42.805,6.029,13.3046,4.60129,2470.754,2022-11-29T12:25:04Z
2022-11-29T10:26:08Z,42.805,6.029,13.3034,4.60129,2470.717,2022-11-29T12:28:08Z
2022-11-29T10:29:11Z,42.805,6.029,13.3041,4.60140,2470.763,2022-11-29T12:31:11Z
2022-11-29T10:32:14Z,42.805,6.029,13.3030,4.60142,2470.777,2022-11-29T12:34:14Z
2022-11-29T10:35:17Z,42.805,6.029,13.3031,4.60135,2470.787,2022-11-29T12:37:17Z
2022-11-29T10:38:20Z,42.805,6.029,13.3026,4.60127,2470.787,2022-11-29T12:40:20Z
2022-11-29T10:41:24Z,42.805,6.029,13.3055,4.60138,2470.754,2022-11-29T12:43:23Z
2022-11-29T10:44:27Z,42.805,6.029,13.3064,4.60149,2470.717,2022-11-29T12:46:26Z
2022-11-29T10:47:30Z,42.805,6.029,13.3038,4.60145,2470.74,2022-11-29T12:49:29Z
2022-11-29T10:50:33Z,42.805,6.029,13.3034,4.60152,2470.777,2022-11-29T12:52:32Z
2022-11-29T10:53:36Z,42.805,6.029,13.3036,4.60160,2470.74,2022-11-29T12:55:35Z
2022-11-29T10:56:39Z,42.805,6.029,13.3031,4.60164,2470.74,2022-11-29T12:58:38Z
2022-11-29T10:59:42Z,42.805,6.029,13.3046,4.60137,2470.754,2022-11-29T13:01:41Z
2022-11-29T11:02:45Z,42.805,6.029,13.3046,4.60162,2470.777,2022-11-29T13:04:45Z
2022-11-29T11:05:48Z,42.805,6.029,13.3058,4.60152,2470.74,2022-11-29T13:07:48Z
2022-11-29T11:08:51Z,42.805,6.029,13.3051,4.60117,2470.74,2022-11-29T13:10:51Z
2022-11-29T11:11:54Z,42.805,6.029,13.3040,4.60127,2470.787,2022-11-29T13:13:54Z
2022-11-29T11:14:57Z,42.805,6.029,13.3047,4.60147,2470.763,2022-11-29T13:16:57Z
2022-11-29T11:18:01Z,42.805,6.029,13.3036,4.60152,2470.763,2022-11-29T13:20:00Z
2022-11-29T11:21:04Z,42.805,6.029,13.3053,4.60100,2470.74,2022-11-29T13:23:03Z
2022-11-29T11:24:07Z,42.805,6.029,13.3059,4.60130,2470.787,2022-11-29T13:26:06Z
2022-11-29T11:27:10Z,42.805,6.029,13.3041,4.60154,2470.75,2022-11-29T13:29:09Z
2022-11-29T11:30:13Z,42.805,6.029,13.3029,4.60127,2470.754,2022-11-29T13:32:12Z
2022-11-29T11:33:16Z,42.805,6.029,13.3030,4.60125,2470.8,2022-11-29T13:35:15Z
2022-11-29T11:36:19Z,42.805,6.029,13.3029,4.60135,2470.754,2022-11-29T13:38:18Z
2022-11-29T11:39:22Z,42.805,6.029,13.3036,4.60127,2470.787,2022-11-29T13:41:21Z
2022-11-29T11:42:25Z,42.805,6.029,13.3042,4.60135,2470.763,2022-11-29T13:44:25Z
2022-11-29T11:45:28Z,42.805,6.029,13.3067,4.60151,2470.763,2022-11-29T13:47:28Z
2022-11-29T11:48:31Z,42.805,6.029,13.3044,4.60176,2470.763,2022-11-29T13:50:31Z
2022-11-29T11:51:34Z,42.805,6.029,13.3043,4.60162,2470.74,2022-11-29T13:53:34Z
2022-11-29T11:54:37Z,42.805,6.029,13.3054,4.60134,2470.777,2022-11-29T13:56:37Z
2022-11-29T11:57:41Z,42.805,6.029,13.3039,4.60110,2470.763,2022-11-29T13:59:40Z
2022-11-29T12:00:44Z,42.805,6.029,13.3038,4.60140,2470.754,2022-11-29T14:02:43Z
2022-11-29T12:03:47Z,42.805,6.029,13.3030,4.60106,2470.777,2022-11-29T14:05:46Z
2022-11-29T12:06:50Z,42.805,6.029,13.3034,4.60096,2470.763,2022-11-29T14:08:49Z
2022-11-29T12:09:53Z,42.805,6.029,13.3034,4.60117,2470.787,2022-11-29T14:11:52Z
2022-11-29T12:12:56Z,42.805,6.029,13.3036,4.60140,2470.74,2022-11-29T14:14:55Z
2022-11-29T12:15:59Z,42.805,6.029,13.3031,4.60123,2470.763,2022-11-29T14:17:58Z
2022-11-29T12:19:02Z,42.805,6.029,13.3034,4.60084,2470.777,2022-11-29T14:21:01Z
2022-11-29T12:22:05Z,42.805,6.029,13.3029,4.60140,2470.754,2022-11-29T14:24:05Z
2022-11-29T12:25:08Z,42.805,6.029,13.3039,4.60144,2470.777,2022-11-29T14:27:08Z
2022-11-29T12:28:11Z,42.805,6.029,13.3034,4.60107,2470.754,2022-11-29T14:30:11Z
2022-11-29T12:31:14Z,42.805,6.029,13.3051,4.60147,2470.777,2022-11-29T14:33:14Z
2022-11-29T12:34:17Z,42.805,6.029,13.3079,4.60160,2470.74,2022-11-29T14:36:17Z
2022-11-29T12:37:21Z,42.805,6.029,13.3060,4.60148,2470.73,2022-11-29T14:39:20Z
2022-11-29T12:40:24Z,42.805,6.029,13.3053,4.60138,2470.777,2022-11-29T14:42:23Z
2022-11-29T12:43:27Z,42.805,6.029,13.3028,4.60127,2470.754,2022-11-29T14:45:26Z
2022-11-29T12:46:30Z,42.805,6.029,13.3033,4.60134,2470.74,2022-11-29T14:48:29Z
2022-11-29T12:49:33Z,42.805,6.029,13.3040,4.60140,2470.717,2022-11-29T14:51:32Z
2022-11-29T12:52:36Z,42.805,6.029,13.3044,4.60086,2470.74,2022-11-29T14:54:35Z
2022-11-29T12:55:39Z,42.805,6.029,13.3034,4.60104,2470.754,2022-11-29T14:57:38Z
2022-11-29T12:58:42Z,42.805,6.029,13.3036,4.60127,2470.74,2022-11-29T15:00:42Z
2022-11-29T13:01:45Z,42.805,6.029,13.3036,4.60096,2470.754,2022-11-29T15:03:45Z
2022-11-29T13:04:48Z,42.805,6.029,13.3041,4.60121,2470.763,2022-11-29T15:06:48Z
2022-11-29T13:07:51Z,42.805,6.029,13.3035,4.60167,2470.73,2022-11-29T15:09:51Z
2022-11-29T13:10:54Z,42.805,6.029,13.3051,4.60129,2470.754,2022-11-29T15:12:54Z
2022-11-29T13:13:57Z,42.805,6.029,13.3037,4.60139,2470.777,2022-11-29T15:15:57Z
2022-11-29T13:17:01Z,42.805,6.029,13.3035,4.60135,2470.717,2022-11-29T15:19:00Z
2022-11-29T13:20:04Z,42.805,6.029,13.3035,4.60142,2470.777,2022-11-29T15:22:03Z
2022-11-29T13:23:07Z,42.805,6.029,13.3034,4.60150,2470.754,2022-11-29T15:25:06Z
2022-11-29T13:26:10Z,42.805,6.029,13.3041,4.60156,2470.74,2022-11-29T15:28:09Z
2022-11-29T13:29:13Z,42.805,6.029,13.3034,4.60207,2470.754,2022-11-29T15:31:12Z
2022-11-29T13:32:16Z,42.805,6.029,13.3044,4.60119,2470.754,2022-11-29T15:34:15Z
2022-11-29T13:35:19Z,42.805,6.029,13.3046,4.60129,2470.707,2022-11-29T15:37:18Z
2022-11-29T13:38:22Z,42.805,6.029,13.3048,4.60150,2470.707,2022-11-29T15:40:22Z
2022-11-29T13:41:25Z,42.805,6.029,13.3066,4.60138,2470.693,2022-11-29T15:43:25Z
2022-11-29T13:44:28Z,42.805,6.029,13.3084,4.60156,2470.73,2022-11-29T15:46:28Z
2022-11-29T13:47:31Z,42.805,6.029,13.3089,4.60141,2470.754,2022-11-29T15:49:31Z
2022-11-29T13:50:34Z,42.805,6.029,13.3085,4.60123,2470.754,2022-11-29T15:52:34Z
2022-11-29T13:53:38Z,42.805,6.029,13.3096,4.60120,2470.693,2022-11-29T15:55:37Z
2022-11-29T13:56:41Z,42.805,6.029,13.3061,4.60126,2470.73,2022-11-29T15:58:40Z
2022-11-29T13:59:44Z,42.805,6.029,13.3079,4.60115,2470.717,2022-11-29T16:01:43Z
2022-11-29T14:02:47Z,42.805,6.029,13.3082,4.60127,2470.717,2022-11-29T16:04:46Z
2022-11-29T14:05:50Z,42.805,6.029,13.3051,4.60112,2470.73,2022-11-29T16:07:49Z
2022-11-29T14:08:53Z,42.805,6.029,13.3054,4.60146,2470.693,2022-11-29T16:10:52Z
2022-11-29T14:11:56Z,42.805,6.029,13.3051,4.60104,2470.73,2022-11-29T16:13:55Z
2022-11-29T14:14:59Z,42.805,6.029,13.3076,4.60099,2470.717,2022-11-29T16:16:58Z
2022-11-29T14:18:02Z,42.805,6.029,13.3061,4.60081,2470.67,2022-11-29T16:20:02Z
2022-11-29T14:21:05Z,42.805,6.029,13.3069,4.60084,2470.717,2022-11-29T16:23:05Z
2022-11-29T14:24:08Z,42.805,6.029,13.3089,4.60104,2470.684,2022-11-29T16:26:08Z
2022-11-29T14:27:11Z,42.805,6.029,13.3079,4.60092,2470.67,2022-11-29T16:29:11Z
2022-11-29T14:30:14Z,42.805,6.029,13.3048,4.60106,2470.717,2022-11-29T16:32:14Z
2022-11-29T14:33:18Z,42.805,6.029,13.3036,4.60122,2470.684,2022-11-29T16:35:17Z
2022-11-29T14:36:21Z,42.805,6.029,13.3048,4.60127,2470.693,2022-11-29T16:38:20Z
2022-11-29T14:39:24Z,42.805,6.029,13.3057,4.60117,2470.717,2022-11-29T16:41:23Z
2022-11-29T14:42:27Z,42.805,6.029,13.3061,4.60129,2470.707,2022-11-29T16:44:26Z
2022-11-29T14:45:30Z,42.805,6.029,13.3067,4.60143,2470.707,2022-11-29T16:47:29Z
2022-11-29T14:48:33Z,42.805,6.029,13.3069,4.60111,2470.684,2022-11-29T16:50:32Z
2022-11-29T14:51:36Z,42.805,6.029,13.3095,4.60117,2470.707,2022-11-29T16:53:35Z
2022-11-29T14:54:39Z,42.805,6.029,13.3072,4.60119,2470.67,2022-11-29T16:56:39Z
2022-11-29T14:57:42Z,42.805,6.029,13.3055,4.60132,2470.707,2022-11-29T16:59:42Z
2022-11-29T15:00:45Z,42.805,6.029,13.3112,4.60118,2470.684,2022-11-29T17:02:45Z